Lid_Strength_Index
-1 -1 -1 -1 -1 -1 -1 0 2 1 1 1 1 1 0 0 1 3 8 5 5 1 2 5 5 4 5 5 4 4 7 9 8 8 7 5 6 5 4 5 4 3 4 3 1
-1 -1 -1 -1 -1 -1 -1 -1 -1 1 1 -0 0 0 0 0 4 7 4 2 1 0 4 4 6 5 6 6 5 6 8 7 5 5 6 5 5 5 6 6 6 4 3 2 2
-0 -0 -1 -1 -1 -1 -1 -1 -1 -1 -0 -0 -0 -0 -0 1 7 7 1 1 1 2 3 3 5 5 6 6 6 6 7 6 6 6 5 5 5 5 6 7 5 5 3 3 3
-0 -0 -1 -1 -1 -1 -1 -1 -1 -1 -0 -0 -0 -0 0 3 11 5 -0 0 -0 3 5 4 5 8 8 8 6 8 7 7 6 7 6 6 5 6 5 5 4 4 3 3 4
0 0 -0 -0 -1 -1 -1 -1 -1 -1 -1 -0 -0 -0 2 7 7 3 -0 -0 2 4 5 5 6 7 8 7 8 8 7 8 7 7 6 6 6 6 6 4 5 4 3 3 3
1 1 -0 0 -1 -1 -1 -1 -1 -1 -1 -0 -0 -0 4 9 4 2 3 4 4 4 5 5 6 6 7 8 8 7 7 8 7 8 7 7 7 7 6 5 5 5 5 3 3
1 1 0 1 0 -1 -1 -1 -1 -1 -1 -1 -0 2 5 7 3 2 3 4 3 4 5 4 5 6 7 8 7 8 9 8 8 8 8 7 9 9 5 7 7 6 6 4 3
1 1 1 1 1 -1 -1 -1 -1 -1 -1 -1 -1 3 7 4 2 3 3 4 3 3 4 4 4 5 7 7 8 9 9 11 8 8 8 8 10 6 6 7 7 6 6 6 4
1 1 1 1 0 -1 -1 -1 -1 -1 -1 -1 2 5 8 2 5 3 3 5 4 4 4 4 4 6 7 9 10 10 12 11 11 8 8 9 9 7 7 8 7 7 6 6 5
1 1 1 0 0 -0 -1 -0 -1 -1 0 1 3 7 7 7 4 4 3 3 5 5 5 6 6 8 8 10 13 12 12 11 11 10 9 9 9 8 7 7 7 6 6 6 6
1 1 1 1 0 -0 1 2 5 6 4 7 7 8 7 4 3 5 4 5 5 6 9 7 10 11 10 9 9 10 11 11 10 10 10 10 10 8 7 7 7 7 6 6 5
1 1 1 1 -1 0 1 6 6 6 9 5 6 6 5 4 7 5 4 6 7 9 8 9 11 9 8 8 10 10 11 11 11 10 10 10 10 8 7 7 7 7 6 6 5
1 1 1 0 -0 1 4 5 3 3 9 8 6 6 6 5 7 6 5 6 7 9 9 10 9 8 9 10 11 11 11 11 12 11 10 11 11 10 8 7 7 6 6 5 5
1 1 1 1 3 3 5 3 2 3 11 10 9 7 5 5 8 5 4 6 8 9 8 9 9 9 10 11 10 12 10 10 11 12 14 11 15 10 9 9 9 8 7 6 6
1 1 1 1 3 5 4 1 1 4 17 9 9 5 5 7 7 7 5 6 9 9 8 10 10 10 10 10 9 11 9 10 11 12 12 12 14 12 11 11 9 8 7 7 6
1 1 1 2 2 2 1 1 3 11 17 12 10 10 9 8 8 7 7 6 7 9 9 10 9 8 9 10 9 9 10 10 10 11 16 13 13 13 12 10 9 8 8 7 7
1 1 2 2 4 1 1 3 12 17 10 13 13 10 10 11 10 9 10 10 11 13 12 11 11 9 9 10 9 9 11 14 15 16 17 13 14 13 9 10 9 9 8 7 7
1 1 2 2 2 1 3 9 16 13 12 10 11 11 12 11 10 9 10 11 9 10 11 13 15 11 9 10 11 11 11 13 18 17 15 15 15 13 9 9 9 9 8 7 7
1 2 3 3 1 2 8 15 15 11 9 11 11 13 13 12 11 10 10 11 9 9 12 13 13 9 9 9 9 11 13 10 15 16 15 14 13 10 9 10 9 9 8 7 7
7 6 5 4 1 4 10 13 11 9 9 10 13 12 14 13 13 12 12 10 10 8 8 10 13 11 10 9 9 10 9 14 13 18 18 16 14 14 12 11 10 9 9 8 7
7 9 7 4 3 7 14 11 10 9 8 11 11 13 12 13 13 13 13 10 9 9 8 9 11 12 10 12 12 12 12 11 11 12 15 17 15 10 9 9 10 9 8 7 8
9 13 8 4 11 12 13 10 9 9 8 9 9 11 12 11 13 13 13 11 9 9 12 10 11 13 13 9 8 9 11 11 13 15 13 13 13 9 10 9 7 8 8 7 7
11 11 7 5 14 14 11 11 9 9 9 9 10 10 10 12 13 11 11 9 9 10 11 10 12 16 15 12 11 12 10 10 10 11 13 15 14 8 9 9 7 7 8 8 8
10 13 12 9 10 11 12 12 12 8 8 8 9 8 10 11 10 11 11 9 9 9 9 9 11 14 16 14 11 13 12 11 11 13 13 13 12 10 10 9 8 8 8 8 8
11 12 12 13 13 10 10 11 12 12 9 8 9 9 10 11 11 12 10 9 9 9 9 9 14 12 12 12 11 11 12 11 12 12 13 13 12 11 9 9 8 7 8 8 8
12 13 11 11 11 11 11 12 11 10 10 11 10 9 9 11 10 12 10 10 10 9 10 9 15 11 14 11 11 13 12 11 12 12 11 12 11 9 7 7 8 8 8 8 8
9 9 10 12 11 12 11 11 10 9 9 9 9 9 10 9 8 8 7 8 9 10 10 11 13 14 15 12 12 15 13 12 11 10 11 13 11 9 9 8 8 8 8 8 8